Year,Month,Day,Hour,Minute,Value (Times are PST for temperature in C)
2008,07,28,00,00,14.20
2008,07,28,00,01,14.20
2008,07,28,00,02,14.20
2008,07,28,00,03,14.20
2008,07,28,00,04,14.20
2008,07,28,00,05,14.20
2008,07,28,00,06,14.20
2008,07,28,00,07,14.20
2008,07,28,00,08,14.20
2008,07,28,00,09,14.20
2008,07,28,00,10,14.20
2008,07,28,00,11,14.20
2008,07,28,00,12,14.20
2008,07,28,01,02,14.00
2008,07,28,01,03,14.00
2008,07,28,01,04,13.90
2008,07,28,01,05,13.90
2008,07,28,01,06,13.90
2008,07,28,01,07,13.90
2008,07,28,01,08,13.90
2008,07,28,01,09,13.90
2008,07,28,01,10,13.90
2008,07,28,01,11,13.90
2008,07,28,01,12,13.90
2008,07,28,01,13,13.90
2008,07,28,01,14,13.90
2008,07,28,01,15,13.90
2008,07,28,01,16,13.90
2008,07,28,01,17,13.90
2008,07,28,01,18,13.80
2008,07,28,01,19,13.80
2008,07,28,01,20,13.80
2008,07,28,01,21,13.80
2008,07,28,01,22,13.80
2008,07,28,01,23,13.80
2008,07,28,01,24,13.80
2008,07,28,01,25,13.70
2008,07,28,01,26,13.70
2008,07,28,01,27,13.70
2008,07,28,01,28,13.70
2008,07,28,01,29,13.70
2008,07,28,01,30,13.70
2008,07,28,01,31,13.70
2008,07,28,01,32,13.70
2008,07,28,01,33,13.70
2008,07,28,01,34,13.70
2008,07,28,01,35,13.60
2008,07,28,01,36,13.60
2008,07,28,01,37,13.60
2008,07,28,01,38,13.60
2008,07,28,01,39,13.60
2008,07,28,01,40,13.50
2008,07,28,01,41,13.50
2008,07,28,01,42,13.50
2008,07,28,01,43,13.50
2008,07,28,01,44,13.40
2008,07,28,01,45,13.40
2008,07,28,01,46,13.40
2008,07,28,01,47,13.40
2008,07,28,01,48,13.40
2008,07,28,01,49,13.40
2008,07,28,01,50,13.40
2008,07,28,01,51,13.30
2008,07,28,01,52,13.30
2008,07,28,01,53,13.30
2008,07,28,01,54,13.30
2008,07,28,01,55,13.30
2008,07,28,01,56,13.30
2008,07,28,01,57,13.30
2008,07,28,01,58,13.30
2008,07,28,01,59,13.30
2008,07,28,02,00,13.30
2008,07,28,02,01,13.30
2008,07,28,02,02,13.30
2008,07,28,02,03,13.30
2008,07,28,02,04,13.30
2008,07,28,02,05,13.30
2008,07,28,02,06,13.30
2008,07,28,02,07,13.30
2008,07,28,02,08,13.20
2008,07,28,02,09,13.20
2008,07,28,02,10,13.20
2008,07,28,02,11,13.20
2008,07,28,02,12,13.10
2008,07,28,02,13,13.10
2008,07,28,02,14,13.10
2008,07,28,02,15,13.10
2008,07,28,02,16,13.00
2008,07,28,02,17,13.00
2008,07,28,02,18,13.00
2008,07,28,02,19,13.00
2008,07,28,02,20,13.00
2008,07,28,02,21,12.90
2008,07,28,02,22,12.90
2008,07,28,02,23,12.90
2008,07,28,02,24,12.90
2008,07,28,02,25,12.90
2008,07,28,02,26,12.90
2008,07,28,02,27,12.90
2008,07,28,02,28,12.80
2008,07,28,02,29,12.80
2008,07,28,02,30,12.80
2008,07,28,02,31,12.80
2008,07,28,02,32,12.80
2008,07,28,02,33,12.80
2008,07,28,02,34,12.80
2008,07,28,02,35,12.80
2008,07,28,02,36,12.80
2008,07,28,02,37,12.80
2008,07,28,02,38,12.80
2008,07,28,02,39,12.80
2008,07,28,02,40,12.80
2008,07,28,02,41,12.80
2008,07,28,02,42,12.70
2008,07,28,02,43,12.70
2008,07,28,02,44,12.70
2008,07,28,02,45,12.70
2008,07,28,02,46,12.70
2008,07,28,02,47,12.60
2008,07,28,02,48,12.60
2008,07,28,02,49,12.60
2008,07,28,02,50,12.60
2008,07,28,02,51,12.50
2008,07,28,02,52,12.50
2008,07,28,02,53,12.50
2008,07,28,02,54,12.50
2008,07,28,02,55,12.50
2008,07,28,02,56,12.40
2008,07,28,02,57,12.40
2008,07,28,02,58,12.40
2008,07,28,02,59,12.40
2008,07,28,03,00,12.40
2008,07,28,03,01,12.40
2008,07,28,03,02,12.40
2008,07,28,03,03,12.30
2008,07,28,03,04,12.30
2008,07,28,03,05,12.30
2008,07,28,03,06,12.30
2008,07,28,03,07,12.30
2008,07,28,03,08,12.30
2008,07,28,03,09,12.30
2008,07,28,03,10,12.30
2008,07,28,03,11,12.30
2008,07,28,03,12,12.30
2008,07,28,03,13,12.30
2008,07,28,03,14,12.20
2008,07,28,03,15,12.20
2008,07,28,03,16,12.20
2008,07,28,03,17,12.20
2008,07,28,03,18,12.20
2008,07,28,03,19,12.20
2008,07,28,03,20,12.20
2008,07,28,03,21,12.10
2008,07,28,03,22,12.10
2008,07,28,03,23,12.10
2008,07,28,03,24,12.10
2008,07,28,03,25,12.10
2008,07,28,03,26,12.00
2008,07,28,03,27,12.00
2008,07,28,03,28,12.00
2008,07,28,03,29,12.00
2008,07,28,03,30,12.00
2008,07,28,03,31,12.00
2008,07,28,03,32,12.00
2008,07,28,03,33,12.00
2008,07,28,03,34,12.00
2008,07,28,03,35,12.00
2008,07,28,03,36,12.00
2008,07,28,03,37,12.00
2008,07,28,03,38,12.00
2008,07,28,03,39,12.00
2008,07,28,03,40,12.00
2008,07,28,03,41,12.00
2008,07,28,03,42,12.00
2008,07,28,03,43,12.00
2008,07,28,03,44,12.00
2008,07,28,03,45,12.00
2008,07,28,03,46,12.10
2008,07,28,03,47,12.10
2008,07,28,03,48,12.10
2008,07,28,03,49,12.10
2008,07,28,03,50,12.10
2008,07,28,03,51,12.10
2008,07,28,03,52,12.10
2008,07,28,03,53,12.10
2008,07,28,03,54,12.20
2008,07,28,03,55,12.20
2008,07,28,03,56,12.20
2008,07,28,03,57,12.20
2008,07,28,03,58,12.20
2008,07,28,03,59,12.20
2008,07,28,04,00,12.20
2008,07,28,04,01,12.20
2008,07,28,04,02,12.20
2008,07,28,04,03,12.20
2008,07,28,04,04,12.20
2008,07,28,04,05,12.30
2008,07,28,04,06,12.30
2008,07,28,04,07,12.30
2008,07,28,04,08,12.30
2008,07,28,04,09,12.30
2008,07,28,04,10,12.30
2008,07,28,04,11,12.30
2008,07,28,04,12,12.30
2008,07,28,04,13,12.30
2008,07,28,04,14,12.30
2008,07,28,04,15,12.30
2008,07,28,04,16,12.30
2008,07,28,04,17,12.30
2008,07,28,04,18,12.30
2008,07,28,04,19,12.30
2008,07,28,04,20,12.30
2008,07,28,04,21,12.30
2008,07,28,04,22,12.30
2008,07,28,04,23,12.30
2008,07,28,04,24,12.30
2008,07,28,04,25,12.20
2008,07,28,04,26,12.20
2008,07,28,04,27,12.20
2008,07,28,04,28,12.20
2008,07,28,04,29,12.20
2008,07,28,04,30,12.10
2008,07,28,04,31,12.10
2008,07,28,04,32,12.10
2008,07,28,04,33,12.10
2008,07,28,04,34,12.00
2008,07,28,04,35,12.00
2008,07,28,04,36,12.00
2008,07,28,04,37,12.00
2008,07,28,04,38,11.90
2008,07,28,04,39,11.90
2008,07,28,04,40,11.90
2008,07,28,04,41,11.90
2008,07,28,04,42,11.90
2008,07,28,04,43,11.80
2008,07,28,04,44,11.80
2008,07,28,04,45,11.80
2008,07,28,04,46,11.80
2008,07,28,04,47,11.80
2008,07,28,04,48,11.80
2008,07,28,04,49,11.80
2008,07,28,04,50,11.80
2008,07,28,04,51,11.80
2008,07,28,04,52,11.80
2008,07,28,04,53,11.80
2008,07,28,04,54,11.80
2008,07,28,04,55,11.80
2008,07,28,04,56,11.80
2008,07,28,04,57,11.80
2008,07,28,04,58,11.80
2008,07,28,04,59,11.80
2008,07,28,05,00,11.80
2008,07,28,05,01,11.80
2008,07,28,05,02,11.80
2008,07,28,05,03,11.80
2008,07,28,05,04,11.80
2008,07,28,05,05,11.80
2008,07,28,05,06,11.80
2008,07,28,05,07,11.80
2008,07,28,05,08,11.80
2008,07,28,05,09,11.80
2008,07,28,05,10,11.80
2008,07,28,05,11,11.80
2008,07,28,05,12,11.90
2008,07,28,05,13,11.90
2008,07,28,05,14,11.90
2008,07,28,05,15,11.90
2008,07,28,05,16,11.90
2008,07,28,05,17,11.90
2008,07,28,05,18,11.90
2008,07,28,05,19,11.90
2008,07,28,05,20,11.90
2008,07,28,05,21,11.90
2008,07,28,05,22,11.90
2008,07,28,05,23,11.90
2008,07,28,05,24,11.90
2008,07,28,05,25,11.90
2008,07,28,05,26,11.90
2008,07,28,05,27,11.90
2008,07,28,05,28,11.90
2008,07,28,05,29,11.90
2008,07,28,05,30,11.90
2008,07,28,05,31,11.90
2008,07,28,05,32,11.90
2008,07,28,05,33,11.90
2008,07,28,05,34,11.90
2008,07,28,05,35,12.00
2008,07,28,05,36,12.00
2008,07,28,05,37,12.00
2008,07,28,05,38,12.00
2008,07,28,05,39,12.00
2008,07,28,05,40,12.00
2008,07,28,05,41,12.00
2008,07,28,05,42,12.00
2008,07,28,05,43,12.00
2008,07,28,05,44,12.00
2008,07,28,05,45,12.00
2008,07,28,05,46,12.00
2008,07,28,05,47,12.00
2008,07,28,05,48,12.00
2008,07,28,05,49,12.10
2008,07,28,05,50,12.10
2008,07,28,05,51,12.10
2008,07,28,05,52,12.10
2008,07,28,05,53,12.10
2008,07,28,05,54,12.10
2008,07,28,05,55,12.10
2008,07,28,05,56,12.10
2008,07,28,05,57,12.10
2008,07,28,05,58,12.10
2008,07,28,05,59,12.10
2008,07,28,06,00,12.10
2008,07,28,06,01,12.20
2008,07,28,06,02,12.20
2008,07,28,06,03,12.20
2008,07,28,06,04,12.20
2008,07,28,06,05,12.20
2008,07,28,06,06,12.20
2008,07,28,06,07,12.20
2008,07,28,06,08,12.20
2008,07,28,06,09,12.20
2008,07,28,06,10,12.20
2008,07,28,06,11,12.20
2008,07,28,06,12,12.10
2008,07,28,06,13,12.10
2008,07,28,06,14,12.10
2008,07,28,06,15,12.10
2008,07,28,06,16,12.10
2008,07,28,06,17,12.10
2008,07,28,06,18,12.00
2008,07,28,06,19,12.00
2008,07,28,06,20,12.00
2008,07,28,06,21,12.00
2008,07,28,06,22,12.00
2008,07,28,06,23,12.00
2008,07,28,06,24,12.00
2008,07,28,06,25,11.90
2008,07,28,06,26,11.90
2008,07,28,06,27,11.90
2008,07,28,06,28,11.90
2008,07,28,06,29,11.90
2008,07,28,06,30,11.80
2008,07,28,06,31,11.80
2008,07,28,06,32,11.80
2008,07,28,06,33,11.80
2008,07,28,06,34,11.80
2008,07,28,06,35,11.80
2008,07,28,06,36,11.80
2008,07,28,06,37,11.80
2008,07,28,06,38,11.80
2008,07,28,06,39,11.80
2008,07,28,06,40,11.80
2008,07,28,06,41,11.80
2008,07,28,06,42,11.80
2008,07,28,06,43,11.80
2008,07,28,06,44,11.80
2008,07,28,06,45,11.80
2008,07,28,06,46,11.80
2008,07,28,06,47,11.80
2008,07,28,06,48,11.90
2008,07,28,06,49,11.90
2008,07,28,06,50,11.90
2008,07,28,06,51,11.90
2008,07,28,06,52,12.00
2008,07,28,06,53,12.00
2008,07,28,06,54,12.00
2008,07,28,06,55,12.00
2008,07,28,06,56,12.00
2008,07,28,06,57,12.00
2008,07,28,06,58,12.00
2008,07,28,06,59,12.10
2008,07,28,07,00,12.10
2008,07,28,07,01,12.10
2008,07,28,07,02,12.10
2008,07,28,07,03,12.10
2008,07,28,07,04,12.10
2008,07,28,07,05,12.10
2008,07,28,07,06,12.20
2008,07,28,07,07,12.20
2008,07,28,07,08,12.20
2008,07,28,07,09,12.20
2008,07,28,07,10,12.20
2008,07,28,07,11,12.20
2008,07,28,07,12,12.20
2008,07,28,07,13,12.20
2008,07,28,07,14,12.20
2008,07,28,07,15,12.30
2008,07,28,07,16,12.30
2008,07,28,07,17,12.30
2008,07,28,07,18,12.30
2008,07,28,07,19,12.30
2008,07,28,07,20,12.30
2008,07,28,07,21,12.30
2008,07,28,07,22,12.40
2008,07,28,07,23,12.40
2008,07,28,07,24,12.40
2008,07,28,07,25,12.40
2008,07,28,07,26,12.40
2008,07,28,07,27,12.40
2008,07,28,07,28,12.50
2008,07,28,07,29,12.50
2008,07,28,07,30,12.50
2008,07,28,07,31,12.50
2008,07,28,07,32,12.50
2008,07,28,07,33,12.50
2008,07,28,07,34,12.60
2008,07,28,07,35,12.60
2008,07,28,07,36,12.60
2008,07,28,07,37,12.60
2008,07,28,07,38,12.60
2008,07,28,07,39,12.60
2008,07,28,07,40,12.70
2008,07,28,07,41,12.70
2008,07,28,07,42,12.70
2008,07,28,07,43,12.70
2008,07,28,07,44,12.70
2008,07,28,07,45,12.80
2008,07,28,07,46,12.80
2008,07,28,07,47,12.80
2008,07,28,07,48,12.90
2008,07,28,07,49,12.90
2008,07,28,07,50,13.00
2008,07,28,07,51,13.00
2008,07,28,07,52,13.00
2008,07,28,07,53,13.10
2008,07,28,07,54,13.10
2008,07,28,07,55,13.20
2008,07,28,07,56,13.20
2008,07,28,07,57,13.30
2008,07,28,07,58,13.30
2008,07,28,07,59,13.40
2008,07,28,08,00,13.40
2008,07,28,08,01,13.50
2008,07,28,08,02,13.50
2008,07,28,08,03,13.60
2008,07,28,08,04,13.60
2008,07,28,08,05,13.70
2008,07,28,08,06,13.70
2008,07,28,08,07,13.80
2008,07,28,08,08,13.90
2008,07,28,08,09,14.00
2008,07,28,08,10,14.00
2008,07,28,08,11,14.10
2008,07,28,08,12,14.10
2008,07,28,08,13,14.20
2008,07,28,08,14,14.20
2008,07,28,08,15,14.20
2008,07,28,08,16,14.20
2008,07,28,08,17,14.30
2008,07,28,08,18,14.30
2008,07,28,08,19,14.40
2008,07,28,08,20,14.50
2008,07,28,08,21,14.50
2008,07,28,08,22,14.50
2008,07,28,08,23,14.60
2008,07,28,08,24,14.70
2008,07,28,08,25,14.80
2008,07,28,08,26,14.90
2008,07,28,08,27,15.00
2008,07,28,08,28,15.00
2008,07,28,08,29,15.10
2008,07,28,08,30,15.20
2008,07,28,08,31,15.30
2008,07,28,08,32,15.40
2008,07,28,08,33,15.50
2008,07,28,08,34,15.60
2008,07,28,08,35,15.60
2008,07,28,08,36,15.70
2008,07,28,08,37,15.70
2008,07,28,08,38,15.80
2008,07,28,08,39,15.80
2008,07,28,08,40,15.90
2008,07,28,08,41,15.90
2008,07,28,08,42,15.90
2008,07,28,08,43,16.10
2008,07,28,08,44,16.10
2008,07,28,08,45,16.10
2008,07,28,08,46,16.10
2008,07,28,08,47,16.10
2008,07,28,08,48,16.10
2008,07,28,08,49,16.10
2008,07,28,08,50,16.10
2008,07,28,08,51,16.20
2008,07,28,08,52,16.20
2008,07,28,08,53,16.20
2008,07,28,08,54,16.30
2008,07,28,08,55,16.30
2008,07,28,08,56,16.30
2008,07,28,08,57,16.40
2008,07,28,08,58,16.40
2008,07,28,08,59,16.40
2008,07,28,09,00,16.40
2008,07,28,09,01,16.40
2008,07,28,09,02,16.50
2008,07,28,09,03,16.60
2008,07,28,09,04,16.60
2008,07,28,09,05,16.60
2008,07,28,09,06,16.60
2008,07,28,09,07,16.60
2008,07,28,09,08,16.60
2008,07,28,09,09,16.70
2008,07,28,09,10,16.70
2008,07,28,09,11,16.70
2008,07,28,09,12,16.70
2008,07,28,09,13,16.70
2008,07,28,09,14,16.70
2008,07,28,09,15,16.80
2008,07,28,09,16,16.80
2008,07,28,09,17,16.80
2008,07,28,09,18,16.80
2008,07,28,09,19,16.90
2008,07,28,09,20,16.90
2008,07,28,09,21,16.90
2008,07,28,09,22,16.90
2008,07,28,09,23,16.90
2008,07,28,09,24,16.90
2008,07,28,09,25,16.90
2008,07,28,09,26,16.90
2008,07,28,09,27,16.90
2008,07,28,09,28,16.90
2008,07,28,09,29,16.90
2008,07,28,09,30,16.90
2008,07,28,09,31,16.90
2008,07,28,09,32,16.90
2008,07,28,09,33,16.90
2008,07,28,09,34,17.00
2008,07,28,09,35,17.00
2008,07,28,09,36,17.00
2008,07,28,09,37,17.00
2008,07,28,09,38,17.00
2008,07,28,09,39,17.00
2008,07,28,09,40,17.00
2008,07,28,09,41,17.10
2008,07,28,09,42,17.10
2008,07,28,09,43,17.10
2008,07,28,09,44,17.10
2008,07,28,09,45,17.10
2008,07,28,09,46,17.20
2008,07,28,09,47,17.20
2008,07,28,09,48,17.20
2008,07,28,09,49,17.30
2008,07,28,09,50,17.30
2008,07,28,09,51,17.30
2008,07,28,09,52,17.30
2008,07,28,09,53,17.30
2008,07,28,09,54,17.30
2008,07,28,09,55,17.30
2008,07,28,09,56,17.40
2008,07,28,09,57,17.40
2008,07,28,09,58,17.50
2008,07,28,09,59,17.50
2008,07,28,10,00,17.60
2008,07,28,10,01,17.70
2008,07,28,10,02,17.80
2008,07,28,10,03,17.80
2008,07,28,10,04,17.90
2008,07,28,10,05,17.90
2008,07,28,10,06,18.00
2008,07,28,10,07,18.10
2008,07,28,10,08,18.20
2008,07,28,10,09,18.20
2008,07,28,10,10,18.20
2008,07,28,10,11,18.20
2008,07,28,10,12,18.20
2008,07,28,10,13,18.30
2008,07,28,10,14,18.30
2008,07,28,10,15,18.30
2008,07,28,10,16,18.30
2008,07,28,10,17,18.30
2008,07,28,10,18,18.40
2008,07,28,10,19,18.40
2008,07,28,10,20,18.40
2008,07,28,10,21,18.40
2008,07,28,10,22,18.50
2008,07,28,10,23,18.50
2008,07,28,10,24,18.60
2008,07,28,10,25,18.60
2008,07,28,10,26,18.60
2008,07,28,10,27,18.60
2008,07,28,10,28,18.60
2008,07,28,10,29,18.60
2008,07,28,10,30,18.70
2008,07,28,10,31,18.70
2008,07,28,10,32,18.70
2008,07,28,10,33,18.70
2008,07,28,10,34,18.70
2008,07,28,10,35,18.70
2008,07,28,10,36,18.70
2008,07,28,10,37,18.70
2008,07,28,10,38,18.70
2008,07,28,10,39,18.70
2008,07,28,10,40,18.70
2008,07,28,10,41,18.60
2008,07,28,10,42,18.60
2008,07,28,10,43,18.60
2008,07,28,10,44,18.60
2008,07,28,10,45,18.60
2008,07,28,10,46,18.60
2008,07,28,10,47,18.60
2008,07,28,10,48,18.70
2008,07,28,10,49,18.70
2008,07,28,10,50,18.80
2008,07,28,10,51,18.80
2008,07,28,10,52,18.80
2008,07,28,10,53,18.90
2008,07,28,10,54,18.90
2008,07,28,10,55,18.90
2008,07,28,10,56,18.90
2008,07,28,10,57,18.90
2008,07,28,10,58,18.90
2008,07,28,10,59,18.90
2008,07,28,11,00,18.90
2008,07,28,11,01,19.00
2008,07,28,11,02,19.10
2008,07,28,11,03,19.10
2008,07,28,11,04,19.10
2008,07,28,11,05,19.10
2008,07,28,11,06,19.10
2008,07,28,11,07,19.20
2008,07,28,11,08,19.30
2008,07,28,11,09,19.30
2008,07,28,11,10,19.30
2008,07,28,11,11,19.40
2008,07,28,11,12,19.40
2008,07,28,11,13,19.40
2008,07,28,11,14,19.30
2008,07,28,11,15,19.10
2008,07,28,11,16,19.10
2008,07,28,11,17,19.00
2008,07,28,11,18,18.90
2008,07,28,11,19,18.90
2008,07,28,11,20,18.90
2008,07,28,11,21,18.90
2008,07,28,11,22,18.90
2008,07,28,11,23,18.90
2008,07,28,11,24,18.90
2008,07,28,11,25,18.90
2008,07,28,11,26,18.90
2008,07,28,11,27,19.10
2008,07,28,11,28,19.10
2008,07,28,11,29,19.10
2008,07,28,11,30,19.00
2008,07,28,11,31,18.90
2008,07,28,11,32,18.90
2008,07,28,11,33,18.90
2008,07,28,11,34,18.80
2008,07,28,11,35,18.80
2008,07,28,11,36,18.70
2008,07,28,11,37,18.60
2008,07,28,11,38,18.60
2008,07,28,11,39,18.60
2008,07,28,11,40,18.60
2008,07,28,11,41,18.70
2008,07,28,11,42,18.70
2008,07,28,11,43,18.80
2008,07,28,11,44,18.90
2008,07,28,11,45,18.90
2008,07,28,11,46,18.90
2008,07,28,11,47,18.90
2008,07,28,11,48,18.90
2008,07,28,11,49,18.90
2008,07,28,11,50,18.80
2008,07,28,11,51,18.80
2008,07,28,11,52,18.80
2008,07,28,11,53,18.80
2008,07,28,11,54,18.80
2008,07,28,11,55,18.90
2008,07,28,11,56,18.90
2008,07,28,11,57,18.90
2008,07,28,11,58,19.00
2008,07,28,11,59,19.10
2008,07,28,12,00,19.10
2008,07,28,12,01,19.10
2008,07,28,12,02,19.20
2008,07,28,12,03,19.30
2008,07,28,12,04,19.30
2008,07,28,12,05,19.40
2008,07,28,12,06,19.50
2008,07,28,12,07,19.50
2008,07,28,12,08,19.60
2008,07,28,12,09,19.50
2008,07,28,12,10,19.60
2008,07,28,12,11,19.60
2008,07,28,12,12,19.50
2008,07,28,12,13,19.60
2008,07,28,12,14,19.60
2008,07,28,12,15,19.70
2008,07,28,12,16,19.80
2008,07,28,12,17,19.80
2008,07,28,12,18,19.70
2008,07,28,12,19,19.70
2008,07,28,12,20,19.70
2008,07,28,12,21,19.70
2008,07,28,12,22,19.70
2008,07,28,12,23,19.70
2008,07,28,12,24,19.80
2008,07,28,12,25,19.80
2008,07,28,12,26,19.70
2008,07,28,12,27,19.70
2008,07,28,12,28,19.80
2008,07,28,12,29,19.80
2008,07,28,12,30,19.90
2008,07,28,12,31,20.10
2008,07,28,12,32,20.20
2008,07,28,12,33,20.20
2008,07,28,12,34,20.20
2008,07,28,12,35,20.20
2008,07,28,12,36,20.20
2008,07,28,12,37,20.20
2008,07,28,12,38,20.20
2008,07,28,12,39,20.20
2008,07,28,12,40,20.20
2008,07,28,12,41,20.20
2008,07,28,12,42,20.20
2008,07,28,12,43,20.20
2008,07,28,12,44,20.20
2008,07,28,12,45,20.20
2008,07,28,12,46,20.30
2008,07,28,12,47,20.20
2008,07,28,12,48,20.20
2008,07,28,12,49,20.20
2008,07,28,12,50,20.20
2008,07,28,12,51,20.20
2008,07,28,12,52,20.10
2008,07,28,12,53,20.10
2008,07,28,12,54,20.00
2008,07,28,12,55,19.90
2008,07,28,12,56,19.90
2008,07,28,12,57,19.80
2008,07,28,12,58,19.70
2008,07,28,12,59,19.70
2008,07,28,13,00,19.60
2008,07,28,13,01,19.50
2008,07,28,13,02,19.40
2008,07,28,13,03,19.40
2008,07,28,13,04,19.30
2008,07,28,13,05,19.40
2008,07,28,13,06,19.50
2008,07,28,13,07,19.50
2008,07,28,13,08,19.50
2008,07,28,13,09,19.50
2008,07,28,13,10,19.50
2008,07,28,13,11,19.50
2008,07,28,13,12,19.50
2008,07,28,13,13,19.60
2008,07,28,13,14,19.60
2008,07,28,13,15,19.50
2008,07,28,13,16,19.50
2008,07,28,13,17,19.40
2008,07,28,13,18,19.30
2008,07,28,13,19,19.30
2008,07,28,13,20,19.30
2008,07,28,13,21,19.30
2008,07,28,13,22,19.30
2008,07,28,13,23,19.20
2008,07,28,13,24,19.30
2008,07,28,13,25,19.20
2008,07,28,13,26,19.20
2008,07,28,13,27,19.20
2008,07,28,13,28,19.20
2008,07,28,13,29,19.20
2008,07,28,13,30,19.20
2008,07,28,13,31,19.10
2008,07,28,13,32,19.20
2008,07,28,13,33,19.20
2008,07,28,13,34,19.20
2008,07,28,13,35,19.20
2008,07,28,13,36,19.20
2008,07,28,13,37,19.20
2008,07,28,13,38,19.20
2008,07,28,13,39,19.20
2008,07,28,13,40,19.20
2008,07,28,13,41,19.20
2008,07,28,13,42,19.30
2008,07,28,13,43,19.30
2008,07,28,13,44,19.40
2008,07,28,13,45,19.50
2008,07,28,13,46,19.60
2008,07,28,13,47,19.60
2008,07,28,13,48,19.70
2008,07,28,13,49,19.70
2008,07,28,13,50,19.80
2008,07,28,13,51,19.80
2008,07,28,13,52,19.80
2008,07,28,13,53,19.80
2008,07,28,13,54,19.80
2008,07,28,13,55,19.80
2008,07,28,13,56,19.80
2008,07,28,13,57,19.80
2008,07,28,13,58,19.70
2008,07,28,13,59,19.70
2008,07,28,14,00,19.80
2008,07,28,14,01,19.80
2008,07,28,14,02,19.80
2008,07,28,14,03,19.80
2008,07,28,14,04,19.80
2008,07,28,14,05,19.90
2008,07,28,14,06,19.90
2008,07,28,14,07,19.90
2008,07,28,14,08,19.90
2008,07,28,14,09,19.90
2008,07,28,14,10,19.90
2008,07,28,14,11,19.90
2008,07,28,14,12,19.90
2008,07,28,14,13,19.80
2008,07,28,14,14,19.80
2008,07,28,14,15,19.80
2008,07,28,14,16,19.80
2008,07,28,14,17,19.80
2008,07,28,14,18,19.80
2008,07,28,14,19,19.70
2008,07,28,14,20,19.70
2008,07,28,14,21,19.60
2008,07,28,14,22,19.60
2008,07,28,14,23,19.50
2008,07,28,14,24,19.50
2008,07,28,14,25,19.50
2008,07,28,14,26,19.50
2008,07,28,14,27,19.50
2008,07,28,14,28,19.40
2008,07,28,14,29,19.30
2008,07,28,14,30,19.20
2008,07,28,14,31,19.10
2008,07,28,14,32,19.10
2008,07,28,14,33,19.10
2008,07,28,14,34,19.10
2008,07,28,14,35,19.10
2008,07,28,14,36,19.10
2008,07,28,14,37,19.20
2008,07,28,14,38,19.10
2008,07,28,14,39,19.20
2008,07,28,14,40,19.20
2008,07,28,14,41,19.20
2008,07,28,14,42,19.30
2008,07,28,14,43,19.30
2008,07,28,14,44,19.40
2008,07,28,14,45,19.40
2008,07,28,14,46,19.40
2008,07,28,14,47,19.40
2008,07,28,14,48,19.40
2008,07,28,14,49,19.40
2008,07,28,14,50,19.40
2008,07,28,14,51,19.40
2008,07,28,14,52,19.50
2008,07,28,14,53,19.50
2008,07,28,14,54,19.50
2008,07,28,14,55,19.50
2008,07,28,14,56,19.50
2008,07,28,14,57,19.50
2008,07,28,14,58,19.50
2008,07,28,14,59,19.50
2008,07,28,15,00,19.50
2008,07,28,15,01,19.50
2008,07,28,15,02,19.50
2008,07,28,15,03,19.50
2008,07,28,15,04,19.50
2008,07,28,15,05,19.40
2008,07,28,15,06,19.40
2008,07,28,15,07,19.40
2008,07,28,15,08,19.40
2008,07,28,15,09,19.40
2008,07,28,15,10,19.50
2008,07,28,15,11,19.50
2008,07,28,15,12,19.50
2008,07,28,15,13,19.50
2008,07,28,15,14,19.50
2008,07,28,15,15,19.50
2008,07,28,15,16,19.50
2008,07,28,15,17,19.50
2008,07,28,15,18,19.50
2008,07,28,15,19,19.50
2008,07,28,15,20,19.50
2008,07,28,15,21,19.60
2008,07,28,15,22,19.60
2008,07,28,15,23,19.60
2008,07,28,15,24,19.50
2008,07,28,15,25,19.40
2008,07,28,15,26,19.40
2008,07,28,15,27,19.40
2008,07,28,15,28,19.40
2008,07,28,15,29,19.40
2008,07,28,15,30,19.40
2008,07,28,15,31,19.40
2008,07,28,15,32,19.40
2008,07,28,15,33,19.40
2008,07,28,15,34,19.30
2008,07,28,15,35,19.30
2008,07,28,15,36,19.30
2008,07,28,15,37,19.30
2008,07,28,15,38,19.20
2008,07,28,15,39,19.20
2008,07,28,15,40,19.20
2008,07,28,15,41,19.10
2008,07,28,15,42,19.10
2008,07,28,15,43,19.10
2008,07,28,15,44,19.00
2008,07,28,15,45,18.90
2008,07,28,15,46,18.90
2008,07,28,15,47,18.90
2008,07,28,15,48,18.90
2008,07,28,15,49,18.90
2008,07,28,15,50,18.90
2008,07,28,15,51,18.90
2008,07,28,15,52,18.90
2008,07,28,15,53,18.80
2008,07,28,15,54,18.80
2008,07,28,15,55,18.80
2008,07,28,15,56,18.70
2008,07,28,15,57,18.70
2008,07,28,15,58,18.70
2008,07,28,15,59,18.70
2008,07,28,16,00,18.70
2008,07,28,16,01,18.70
2008,07,28,16,02,18.70
2008,07,28,16,03,18.70
2008,07,28,16,04,18.80
2008,07,28,16,05,18.80
2008,07,28,16,06,18.80
2008,07,28,16,07,18.80
2008,07,28,16,08,18.90
2008,07,28,16,09,18.90
2008,07,28,16,10,18.90
2008,07,28,16,11,18.80
2008,07,28,16,12,18.80
2008,07,28,16,13,18.80
2008,07,28,16,14,18.90
2008,07,28,16,15,18.90
2008,07,28,16,16,18.90
2008,07,28,16,17,18.90
2008,07,28,16,18,18.90
2008,07,28,16,19,18.90
2008,07,28,16,20,18.90
2008,07,28,16,21,18.90
2008,07,28,16,22,19.10
2008,07,28,16,23,19.10
2008,07,28,16,24,19.10
2008,07,28,16,25,19.10
2008,07,28,16,26,19.10
2008,07,28,16,27,19.10
2008,07,28,16,28,19.10
2008,07,28,16,29,19.10
2008,07,28,16,30,19.10
2008,07,28,16,31,19.20
2008,07,28,16,32,19.20
2008,07,28,16,33,19.20
2008,07,28,16,34,19.20
2008,07,28,16,35,19.30
2008,07,28,16,36,19.30
2008,07,28,16,37,19.30
2008,07,28,16,38,19.40
2008,07,28,16,39,19.40
2008,07,28,16,40,19.40
2008,07,28,16,41,19.50
2008,07,28,16,42,19.50
2008,07,28,16,43,19.50
2008,07,28,16,44,19.50
2008,07,28,16,45,19.50
2008,07,28,16,46,19.50
2008,07,28,16,47,19.50
2008,07,28,16,48,19.50
2008,07,28,16,49,19.50
2008,07,28,16,50,19.50
2008,07,28,16,51,19.50
2008,07,28,16,52,19.50
2008,07,28,16,53,19.60
2008,07,28,16,54,19.60
2008,07,28,16,55,19.60
2008,07,28,16,56,19.60
2008,07,28,16,57,19.60
2008,07,28,16,58,19.60
2008,07,28,16,59,19.60
2008,07,28,17,00,19.70
2008,07,28,17,01,19.70
2008,07,28,17,02,19.70
2008,07,28,17,03,19.70
2008,07,28,17,04,19.70
2008,07,28,17,05,19.70
2008,07,28,17,06,19.70
2008,07,28,17,07,19.60
2008,07,28,17,08,19.60
2008,07,28,17,09,19.60
2008,07,28,17,10,19.60
2008,07,28,17,11,19.60
2008,07,28,17,12,19.60
2008,07,28,17,13,19.50
2008,07,28,17,14,19.50
2008,07,28,17,15,19.50
2008,07,28,17,16,19.40
2008,07,28,17,17,19.40
2008,07,28,17,18,19.40
2008,07,28,17,19,19.30
2008,07,28,17,20,19.30
2008,07,28,17,21,19.30
2008,07,28,17,22,19.30
2008,07,28,17,23,19.30
2008,07,28,17,24,19.30
2008,07,28,17,25,19.30
2008,07,28,17,26,19.30
2008,07,28,17,27,19.30
2008,07,28,17,28,19.40
2008,07,28,17,29,19.40
2008,07,28,17,30,19.40
2008,07,28,17,31,19.40
2008,07,28,17,32,19.40
2008,07,28,17,33,19.40
2008,07,28,17,34,19.40
2008,07,28,17,35,19.40
2008,07,28,17,36,19.40
2008,07,28,17,37,19.40
2008,07,28,17,38,19.40
2008,07,28,17,39,19.40
2008,07,28,17,40,19.40
2008,07,28,17,41,19.40
2008,07,28,17,42,19.40
2008,07,28,17,43,19.40
2008,07,28,17,44,19.40
2008,07,28,17,45,19.40
2008,07,28,17,46,19.40
2008,07,28,17,47,19.40
2008,07,28,17,48,19.40
2008,07,28,17,49,19.40
2008,07,28,17,50,19.40
2008,07,28,17,51,19.50
2008,07,28,17,52,19.50
2008,07,28,17,53,19.50
2008,07,28,17,54,19.50
2008,07,28,17,55,19.50
2008,07,28,17,56,19.50
2008,07,28,17,57,19.50
2008,07,28,17,58,19.50
2008,07,28,17,59,19.50
2008,07,28,18,00,19.50
2008,07,28,18,01,19.50
2008,07,28,18,02,19.50
2008,07,28,18,03,19.50
2008,07,28,18,04,19.50
2008,07,28,18,05,19.60
2008,07,28,18,06,19.60
2008,07,28,18,07,19.60
2008,07,28,18,08,19.60